Philip, SD

5:58 AM MDT on October 20, 2017 (GMT -0600)
Philip

Weather History for KPHP - April, 2013

Change the Weather History Date:

Tuesday, April 30, 2013

  Actual Average Record
Temperature  
Mean Temperature 49 °F 52 °F  
Max Temperature 60 °F 66 °F 92 °F (1968)
Min Temperature 37 °F 38 °F 14 °F (1950)
Degree Days  
Heating Degree Days 16 14  
Month to date heating degree days 769 563  
Since 1 July heating degree days 6750 6867  
Cooling Degree Days 0 0  
Month to date cooling degree days 0 3  
Year to date cooling degree days 0 3  
Growing Degree Days 1 (Base 50)    
Moisture  
Dew Point 28 °F    
Average Humidity 50    
Maximum Humidity 76    
Minimum Humidity 23    
Precipitation  
Precipitation 0.00 in 0.10 in 0.90 in (1983)
Month to date precipitation 1.96 1.84  
Year to date precipitation 3.18 3.89  
Sea Level Pressure  
Sea Level Pressure 29.84 in    
Wind  
Wind Speed 17 mph (NW)    
Max Wind Speed 32 mph    
Max Gust Speed 41 mph    
Visibility 10 miles    
Events      
T = Trace of Precipitation, MM = Missing Value Source: NWS Daily Summary

Daily Weather History Graph

Daily Weather History Graph

Search for Another Location

Airport or City:

Trip Planner

Search our weather history database for the weather conditions in past years. The results will help you decide how hot, cold, wet, or windy it might be!

Date:

Astronomy

Apr. 30, 2013 Rise Set
Actual Time 5:38 AM MDT 7:48 PM MDT
Civil Twilight 5:07 AM MDT 8:20 PM MDT
Nautical Twilight 4:28 AM MDT 8:59 PM MDT
Astronomical Twilight 3:45 AM MDT 9:43 PM MDT
Moon 12:16 AM MDT (4/30) 10:08 AM MDT (4/30)
Length of Visible Light 15h 13m
Length of Day
14h 10m
Waning Gibbous, 69% of the Moon is Illuminated
Apr 30
Waning Gibbous
May 2
Last Quarter
May 9
New
May 17
First Quarter
May 24
Full

Hourly Weather History & Observations

Time (MDT) Temp. Windchill Dew Point Humidity Pressure Visibility Wind Dir Wind Speed Gust Speed Precip Events Conditions
12:55 AM 48.0 °F - 39.9 °F 74% 29.56 in 10.0 mi NNW 19.6 mph 29.9 mph N/A   Clear
1:55 AM 46.9 °F - 39.9 °F 77% 29.59 in 10.0 mi NW 19.6 mph 27.6 mph N/A   Scattered Clouds
2:55 AM 46.9 °F - 39.0 °F 74% 29.63 in 10.0 mi WNW 13.8 mph - N/A   Overcast
3:55 AM 46.0 °F 40.2 °F 39.0 °F 76% 29.65 in 10.0 mi West 12.7 mph - N/A   Overcast
4:55 AM 46.9 °F - 36.0 °F 66% 29.67 in 10.0 mi WNW 15.0 mph - N/A   Overcast
5:55 AM 43.0 °F 37.7 °F 34.0 °F 71% 29.70 in 10.0 mi WNW 9.2 mph - N/A   Clear
6:55 AM 46.0 °F 43.1 °F 33.1 °F 61% 29.73 in 10.0 mi WNW 5.8 mph - N/A   Clear
7:55 AM 50.0 °F - 23.0 °F 35% 29.74 in 10.0 mi NW 29.9 mph 36.8 mph N/A   Clear
8:55 AM 53.1 °F - 21.9 °F 30% 29.75 in 10.0 mi NW 29.9 mph 39.1 mph N/A   Clear
9:55 AM 54.0 °F - 23.0 °F 30% 29.75 in 10.0 mi NW 26.5 mph 38.0 mph N/A   Clear
10:55 AM 57.9 °F - 23.0 °F 26% 29.78 in 10.0 mi NW 24.2 mph 31.1 mph N/A   Clear
11:55 AM 59.0 °F - 21.0 °F 23% 29.80 in 10.0 mi NW 25.3 mph 33.4 mph N/A   Clear
12:55 PM 57.9 °F - 23.0 °F 26% 29.82 in 10.0 mi NW 19.6 mph 32.2 mph N/A   Mostly Cloudy
1:55 PM 57.9 °F - 24.1 °F 27% 29.82 in 10.0 mi NNW 19.6 mph 25.3 mph N/A   Partly Cloudy
2:55 PM 57.0 °F - 24.1 °F 28% 29.86 in 10.0 mi NNW 19.6 mph 29.9 mph N/A   Mostly Cloudy
3:55 PM 55.9 °F - 21.9 °F 27% 29.89 in 10.0 mi NW 20.7 mph 25.3 mph N/A   Scattered Clouds
4:55 PM 54.0 °F - 23.0 °F 30% 29.94 in 10.0 mi NNW 16.1 mph - N/A   Overcast
5:55 PM 52.0 °F - 25.0 °F 35% 29.99 in 10.0 mi NW 15.0 mph 19.6 mph N/A   Overcast
6:55 PM 48.9 °F - 28.0 °F 44% 30.00 in 10.0 mi NNW 13.8 mph - N/A   Mostly Cloudy
7:55 PM 46.9 °F - 28.9 °F 50% 30.04 in 10.0 mi NNW 4.6 mph - N/A   Overcast
8:55 PM 46.0 °F 41.9 °F 26.1 °F 46% 30.09 in 10.0 mi North 8.1 mph - N/A   Overcast
9:55 PM 46.0 °F 39.9 °F 25.0 °F 44% 30.13 in 10.0 mi North 13.8 mph - N/A   Overcast
10:55 PM 43.0 °F 34.0 °F 24.1 °F 47% 30.14 in 10.0 mi North 21.9 mph 26.5 mph N/A   Mostly Cloudy
11:55 PM 39.0 °F 29.0 °F 23.0 °F 53% 30.16 in 10.0 mi North 20.7 mph 26.5 mph N/A   Clear